Location: Bothwell
(42.3833°S, 147.0000°E)
Time: 13:40:41
(UTC+11:00)

OBJECT D - Pass Details

Date: 21 November 2025
Orbit: 437 x 585 km, 63.5° (Epoch: 12 December)

Event Time Altitude Azimuth Distance (km) Brightness Sun altitude
Exits shadow 04:54:20 - 300° (WNW) 1,936 ? -7.3°
Reaches altitude 10° 04:54:31 10° 299° (WNW) 1,866 ? -7.3°
Maximum altitude 04:58:29 39° 229° (SW) 839 ? -6.7°
Drops below altitude 10° 05:02:20 10° 158° (SSE) 1,809 ? -6.1°
Sets 05:04:37 0° 150° (SSE) 2,678 ? -5.7°
